Location: ?????????
(54.7630°N, 39.4991°E)
Time: 18:15:58
(UTC+00:00)

CZ-4C R/B - Pass Details

Date: 14 April 2026
Orbit: 475 x 1502 km, 63.4° (Epoch: 19 May)

Event Time Altitude Azimuth Distance (km) Brightness Sun altitude
Exits shadow 23:46:58 21° 160° (SSE) 1,429 3.1 -18.7°
Maximum altitude 23:48:58 29° 118° (ESE) 1,235 3.2 -18.6°
Drops below altitude 10° 23:53:32 10° 60° (ENE) 2,388 5.6 -18.2°
Sets 23:56:35 0° 50° (NE) 3,518 7.0 -17.9°
